Weather History for Wahpeton, ND

Change the Weather History Date:

Thursday, May 3, 2012

  Actual Average (KFFM) Record (KFFM)
Temperature  
Mean Temperature 60 °F -  
Max Temperature 69 °F 63 °F 95 °F (1949)
Min Temperature 50 °F 38 °F 20 °F (1967)
Degree Days  
Heating Degree Days 6    
Growing Degree Days 10 (Base 50)    
Moisture  
Dew Point 47 °F    
Average Humidity 66    
Maximum Humidity 94    
Minimum Humidity 37    
Precipitation  
Precipitation 0.38 in - - ()
Sea Level Pressure  
Sea Level Pressure 29.87 in    
Wind  
Wind Speed 12 mph (NNE)    
Max Wind Speed 20 mph    
Max Gust Speed 29 mph    
Visibility 10 miles    
Events      
Averages and records for this station are not official NWS values.
T = Trace of Precipitation, MM = Missing Value Source: NWS Daily Summary

Daily Weather History Graph

Daily Weather History Graph

Search for Another Location

Airport:

Trip Planner

Search our weather history database for the weather conditions in past years. The results will help you decide how hot, cold, wet, or windy it might be!

Date:

Astronomy

May. 03, 2012 Rise Set
Actual Time 6:08 AM CDT 8:38 PM CDT
Civil Twilight 5:35 AM CDT 9:12 PM CDT
Nautical Twilight 4:53 AM CDT 9:54 PM CDT
Astronomical Twilight 4:05 AM CDT 10:43 PM CDT
Moon 5:57 PM CDT (5/3) 4:22 AM CDT (5/3)
Length of Visible Light 15h 36m
Length of Day
14h 29m
Waxing Gibbous, 91% of the Moon is Illuminated
May 3
Waxing Gibbous
May 5
Full
May 12
Last Quarter
May 20
New
May 28
First Quarter

Hourly Weather History & Observations

Time (CDT) Temp. Dew Point Humidity Pressure Visibility Wind Dir Wind Speed Gust Speed Precip Events Conditions
12:15 AM 51.8 °F 48.2 °F 88% 29.77 in 1.0 mi North - - 0.18 in   Overcast
12:35 AM 51.8 °F 50.0 °F 94% 29.79 in 10.0 mi North 15.0 mph 20.7 mph 0.19 in   Mostly Cloudy
1:15 AM 53.6 °F 46.4 °F 77% 29.74 in 10.0 mi NNE 19.6 mph 28.8 mph N/A   Clear
1:35 AM 53.6 °F 44.6 °F 72% 29.74 in 10.0 mi NNE 18.4 mph 26.5 mph N/A   Clear
1:55 AM 53.6 °F 44.6 °F 72% 29.74 in 10.0 mi NNE 19.6 mph 27.6 mph N/A   Clear
2:15 AM 53.6 °F 44.6 °F 72% 29.74 in 10.0 mi NE 19.6 mph 24.2 mph N/A   Clear
2:35 AM 53.6 °F 44.6 °F 72% 29.74 in 10.0 mi NE 12.7 mph - N/A   Clear
2:55 AM 51.8 °F 44.6 °F 76% 29.74 in 10.0 mi ENE 11.5 mph - N/A   Clear
3:15 AM 51.8 °F 44.6 °F 76% 29.75 in 10.0 mi NE 11.5 mph - N/A   Scattered Clouds
3:35 AM 51.8 °F 46.4 °F 82% 29.73 in 10.0 mi NE 11.5 mph - N/A   Scattered Clouds
3:55 AM 53.6 °F 46.4 °F 77% 29.75 in 10.0 mi ENE 8.1 mph - N/A   Mostly Cloudy
4:15 AM 51.8 °F 46.4 °F 82% 29.74 in 10.0 mi ENE 6.9 mph - N/A   Mostly Cloudy
4:35 AM 53.6 °F 46.4 °F 77% 29.76 in 10.0 mi ENE 6.9 mph - N/A   Mostly Cloudy
4:55 AM 53.6 °F 44.6 °F 72% 29.76 in 10.0 mi NE 11.5 mph - N/A   Overcast
5:15 AM 53.6 °F 46.4 °F 77% 29.81 in 10.0 mi NW 15.0 mph - N/A   Overcast
5:35 AM 50.0 °F 46.4 °F 87% 29.83 in 1.5 mi North 8.1 mph - 0.35 in   Overcast
5:55 AM 51.8 °F 46.4 °F 82% 29.81 in 10.0 mi ENE 6.9 mph - 0.37 in   Overcast
6:15 AM 51.8 °F 46.4 °F 82% 29.81 in 10.0 mi East 9.2 mph - N/A   Scattered Clouds
6:35 AM 51.8 °F 46.4 °F 82% 29.79 in 10.0 mi East 9.2 mph - N/A   Mostly Cloudy
6:55 AM 51.8 °F 46.4 °F 82% 29.80 in 10.0 mi East 9.2 mph - N/A   Overcast
7:15 AM 51.8 °F 46.4 °F 82% 29.80 in 10.0 mi ESE 8.1 mph - N/A   Overcast
7:35 AM 51.8 °F 48.2 °F 88% 29.80 in 10.0 mi SE 11.5 mph - N/A   Overcast
7:55 AM 53.6 °F 48.2 °F 82% 29.81 in 10.0 mi ESE 8.1 mph - N/A   Overcast
8:15 AM 53.6 °F 48.2 °F 82% 29.82 in 10.0 mi Calm Calm - N/A   Mostly Cloudy
8:35 AM 53.6 °F 50.0 °F 88% 29.85 in 10.0 mi NW 8.1 mph - N/A   Scattered Clouds
8:55 AM 55.4 °F 50.0 °F 82% 29.86 in 10.0 mi NNW 9.2 mph - N/A   Scattered Clouds
9:15 AM 55.4 °F 50.0 °F 82% 29.87 in 10.0 mi North 11.5 mph - N/A   Scattered Clouds
9:35 AM 57.2 °F 50.0 °F 77% 29.87 in 10.0 mi NNW 10.4 mph - N/A   Scattered Clouds
9:55 AM 57.2 °F 51.8 °F 82% 29.87 in 10.0 mi North 13.8 mph - N/A   Scattered Clouds
10:15 AM 59.0 °F 50.0 °F 72% 29.87 in 10.0 mi North 12.7 mph - N/A   Scattered Clouds
10:35 AM 59.0 °F 51.8 °F 77% 29.88 in 10.0 mi North 11.5 mph - N/A   Scattered Clouds
10:55 AM 59.0 °F 51.8 °F 77% 29.88 in 10.0 mi North 11.5 mph - N/A   Scattered Clouds
11:15 AM 60.8 °F 51.8 °F 72% 29.89 in 10.0 mi North 12.7 mph - N/A   Clear
11:35 AM 60.8 °F 51.8 °F 72% 29.90 in 10.0 mi NNW 13.8 mph 21.9 mph 0.01 in   Clear
11:55 AM 60.8 °F 51.8 °F 72% 29.90 in 10.0 mi North 13.8 mph - 0.01 in   Clear
12:15 PM 62.6 °F 51.8 °F 68% 29.90 in 10.0 mi North 13.8 mph 18.4 mph N/A   Clear
12:35 PM 62.6 °F 51.8 °F 68% 29.91 in 10.0 mi NNW 13.8 mph 17.3 mph N/A   Clear
12:55 PM 64.4 °F 51.8 °F 64% 29.90 in 10.0 mi North 11.5 mph 17.3 mph N/A   Clear
1:15 PM 64.4 °F 51.8 °F 64% 29.90 in 10.0 mi NW 13.8 mph 19.6 mph N/A   Scattered Clouds
1:35 PM 64.4 °F 51.8 °F 64% 29.91 in 10.0 mi NNW 12.7 mph 19.6 mph N/A   Scattered Clouds
1:55 PM 64.4 °F 50.0 °F 59% 29.92 in 10.0 mi NNW 12.7 mph 16.1 mph N/A   Scattered Clouds
2:15 PM 66.2 °F 51.8 °F 60% 29.92 in 10.0 mi NNE 15.0 mph - N/A   Scattered Clouds
2:35 PM 68.0 °F 51.8 °F 56% 29.91 in 10.0 mi North 9.2 mph 18.4 mph N/A   Clear
2:55 PM 68.0 °F 50.0 °F 52% 29.91 in 10.0 mi North 11.5 mph - N/A   Clear
3:15 PM 69.8 °F 50.0 °F 49% 29.91 in 10.0 mi NNE 15.0 mph - N/A   Clear
3:35 PM 69.8 °F 48.2 °F 46% 29.91 in 10.0 mi NNE 12.7 mph - N/A   Clear
3:55 PM 69.8 °F 46.4 °F 43% 29.91 in 10.0 mi North 11.5 mph 21.9 mph N/A   Clear
4:15 PM 69.8 °F 46.4 °F 43% 29.91 in 10.0 mi North 9.2 mph 18.4 mph N/A   Clear
4:35 PM 69.8 °F 46.4 °F 43% 29.91 in 10.0 mi North 13.8 mph - N/A   Scattered Clouds
4:55 PM 69.8 °F 44.6 °F 40% 29.92 in 10.0 mi NNE 11.5 mph - N/A   Scattered Clouds
5:15 PM 69.8 °F 42.8 °F 38% 29.92 in 10.0 mi North 10.4 mph 17.3 mph N/A   Scattered Clouds
5:35 PM 69.8 °F 42.8 °F 38% 29.92 in 10.0 mi North 15.0 mph - N/A   Scattered Clouds
5:55 PM 68.0 °F 42.8 °F 40% 29.92 in 10.0 mi North 10.4 mph - N/A   Scattered Clouds
6:15 PM 68.0 °F 42.8 °F 40% 29.92 in 10.0 mi North 10.4 mph - N/A   Clear
6:35 PM 68.0 °F 42.8 °F 40% 29.92 in 10.0 mi NNE 12.7 mph - N/A   Clear
6:55 PM 68.0 °F 41.0 °F 37% 29.93 in 10.0 mi NNE 10.4 mph - N/A   Clear
7:15 PM 68.0 °F 42.8 °F 40% 29.93 in 10.0 mi NNE 12.7 mph 17.3 mph N/A   Clear
7:35 PM 64.4 °F 42.8 °F 45% 29.94 in 10.0 mi NNE 9.2 mph - N/A   Clear
7:55 PM 62.6 °F 44.6 °F 52% 29.94 in 10.0 mi NNE 10.4 mph - N/A   Clear
8:15 PM 62.6 °F 44.6 °F 52% 29.94 in 10.0 mi NNE 6.9 mph - N/A   Clear
8:35 PM 60.8 °F 44.6 °F 55% 29.95 in 10.0 mi NNE 5.8 mph - N/A   Clear
8:55 PM 60.8 °F 44.6 °F 55% 29.96 in 10.0 mi NNE 8.1 mph - N/A   Clear
9:15 PM 60.8 °F 44.6 °F 55% 29.96 in 10.0 mi NNE 6.9 mph - N/A   Clear
9:35 PM 59.0 °F 44.6 °F 59% 29.96 in 10.0 mi NNE 6.9 mph - N/A   Clear
9:55 PM 59.0 °F 44.6 °F 59% 29.97 in 10.0 mi NNE 6.9 mph - N/A   Clear
10:15 PM 59.0 °F 42.8 °F 55% 29.98 in 10.0 mi North 8.1 mph - N/A   Clear
10:35 PM 57.2 °F 42.8 °F 59% 29.98 in 10.0 mi North 6.9 mph - N/A   Clear
10:55 PM 57.2 °F 42.8 °F 59% 29.97 in 10.0 mi NNE 8.1 mph - N/A   Clear
11:15 PM 55.4 °F 42.8 °F 63% 29.97 in 10.0 mi North 9.2 mph - N/A   Clear
11:35 PM 55.4 °F 42.8 °F 63% 29.97 in 10.0 mi NE 8.1 mph - N/A   Clear
11:55 PM 55.4 °F 42.8 °F 63% 29.97 in 10.0 mi NE 8.1 mph - N/A   Clear